Tracking 26922 objects as of 31-Jan-2023
HD Live streaming from Space Station
objects crossing your sky now

FREGAT R/B

Track FREGAT R/B now!


NORAD ID: 54224
Int'l Code: 2022-145B
Perigee: 1,524.1 km
Apogee: 38,600.2 km
Inclination: 63.9 °
Period: 712.8 minutes
Semi major axis: 26433 km
RCS: Unknown
Launch date: November 2, 2022
Source: Commonwealth of Independent States (former USSR) (CIS)
Launch site: PLESETSK MISSILE AND SPACE COMPLEX (PKMTR)

Note: This is a ROCKET BODY
Your satellite tracking list
Your tracking list is empty




NASA's NSSDC Master Catalog

Two Line Element Set (TLE):
1 54224U 22145B   23028.94282764  .00000253  00000-0  00000-0 0  9998
2 54224  63.8883  82.8767 7013200 269.7430  16.9204  2.02013103  1776
Source of the keplerian elements: AFSPC